Wind_Speed
33 33 29 26 27 25 25 24 22 20 16 15 17 21 23 26 28 30 31 33 34 34 34 33 33 33 34 35 37 39 39 39 39 39 38 38 38 38 39 40 40 41 42 43
36 33 27 29 30 28 26 26 24 23 18 16 17 17 21 27 31 33 34 35 35 33 32 31 32 33 34 35 37 38 38 39 39 39 39 40 40 41 42 43 43 44 46 47
34 29 30 31 31 28 26 25 25 25 23 21 21 21 23 29 33 35 37 36 33 30 29 30 32 32 33 34 36 37 37 38 39 40 41 42 43 44 44 45 47 48 50 52
32 29 31 32 31 29 25 21 23 26 28 27 27 28 29 33 36 37 37 33 30 29 30 32 33 32 33 34 35 35 37 39 40 42 43 45 46 47 48 50 51 53 55 57
27 25 29 31 29 27 24 21 23 26 29 31 33 35 35 38 39 38 35 32 31 32 33 34 34 33 33 34 35 36 38 40 43 45 47 48 50 51 53 55 56 58 60 61
25 25 28 29 28 27 23 23 26 30 33 35 32 37 41 41 40 38 36 35 34 35 36 37 36 35 36 37 38 38 40 43 46 48 50 52 53 55 56 58 59 61 62 64
24 25 26 27 29 28 27 28 29 33 35 34 30 36 40 41 42 41 40 39 38 39 40 41 40 40 40 40 41 42 43 46 48 51 53 54 56 57 58 60 61 62 63 64
26 26 24 25 25 25 27 29 31 32 32 30 30 35 35 36 39 39 39 39 39 40 41 42 43 44 42 43 44 44 46 48 50 53 55 56 57 58 60 61 62 62 63 62
26 26 24 26 24 25 26 29 30 32 32 31 32 33 34 33 34 35 36 36 35 36 36 38 40 40 42 43 45 46 47 49 52 55 56 57 58 60 61 62 62 62 61 58
29 29 26 27 29 29 29 28 30 34 35 36 36 36 36 35 34 34 35 35 35 34 34 34 36 38 41 43 45 46 47 50 54 56 58 59 61 62 63 62 61 59 56 50
36 36 30 31 33 30 29 30 32 34 36 37 36 35 33 37 39 40 40 40 39 38 38 38 38 40 42 44 44 46 49 52 56 58 60 62 63 63 62 60 59 55 48 42
39 39 37 34 36 34 32 30 30 34 35 36 37 35 33 35 38 41 42 42 42 42 41 41 40 41 43 43 44 47 50 54 58 61 63 64 63 62 61 59 53 46 41 38
43 44 43 39 36 37 38 35 32 31 33 36 39 40 37 38 40 41 42 43 44 44 43 42 41 41 41 42 44 48 52 56 59 62 64 63 62 60 57 52 45 39 38 38
50 49 49 47 43 41 43 44 41 38 38 40 41 42 41 41 40 41 42 43 45 46 45 43 41 41 40 41 46 51 55 59 62 63 62 61 58 56 51 44 39 38 38 40
55 56 55 54 52 49 47 47 47 47 46 45 44 43 43 44 44 43 43 43 42 42 42 39 37 37 39 43 48 53 58 60 61 60 59 57 54 51 44 39 38 38 40 43
54 60 62 61 59 58 55 52 51 52 52 52 51 49 47 47 48 46 44 44 43 42 39 34 34 36 42 47 52 56 58 59 58 57 55 53 49 44 39 38 39 41 44 47
45 51 58 62 63 64 63 58 55 55 55 56 56 54 51 49 50 49 46 45 44 43 40 37 37 42 46 50 53 55 56 55 54 52 51 48 42 38 38 39 41 44 47 50
42 44 49 54 58 64 62 61 61 61 59 59 59 59 58 56 54 53 51 48 47 46 41 40 42 45 48 50 51 52 52 51 50 49 46 41 37 37 38 41 44 47 50 52
43 43 45 47 51 54 54 55 55 56 58 59 61 63 64 61 59 57 54 51 48 43 43 44 45 46 47 48 49 49 49 47 47 44 39 35 35 37 40 43 46 49 51 51
39 41 42 44 47 49 47 47 46 46 48 50 52 55 56 57 57 55 51 49 44 41 41 41 42 43 45 45 45 45 44 44 41 36 33 34 36 39 42 45 47 48 49 50
32 36 39 41 44 44 44 43 42 42 42 40 40 41 43 45 45 43 43 39 36 36 36 36 38 40 41 41 40 41 41 38 33 31 32 34 37 40 43 45 46 47 48 48
27 30 34 37 40 40 40 41 41 39 37 36 36 36 34 34 35 36 36 34 32 30 31 33 35 36 36 37 37 37 34 31 29 30 32 35 38 41 42 43 44 46 46 46
23 25 27 31 33 34 35 35 35 35 33 32 30 26 26 26 26 26 26 25 25 26 28 30 32 32 33 34 33 31 27 26 27 30 33 36 38 40 41 42 44 44 44 44
18 19 22 23 23 23 23 23 23 24 25 24 21 20 21 20 20 20 19 20 22 25 27 28 28 29 30 29 26 23 22 25 28 31 34 36 37 38 40 41 41 41 41 40
14 14 15 16 15 11 10 12 14 13 14 15 15 15 14 14 14 15 17 18 21 23 24 24 25 26 25 21 19 19 22 25 28 32 35 36 37 38 39 39 39 39 38 37
9 8 7 6 6 4 6 8 8 8 10 9 9 10 10 11 12 13 15 17 19 20 21 22 22 20 17 15 16 19 22 26 29 32 34 35 36 37 37 36 36 37 37 34
Wind_Direction
241 243 244 247 248 246 245 245 236 223 224 245 256 254 249 252 259 268 278 286 291 293 297 303 308 312 312 313 313 314 314 315 315 314 314 315 316 316 315 313 312 309 307 306
241 243 242 242 245 246 247 247 239 223 219 243 258 257 251 252 258 267 275 282 287 289 294 299 303 306 309 310 312 314 315 314 313 314 315 316 316 315 314 312 310 308 306 304
243 241 238 240 241 243 243 244 238 224 216 230 245 248 248 250 256 264 272 279 284 285 288 294 299 302 305 308 312 313 313 313 314 315 316 316 315 313 312 310 308 307 305 304
242 237 238 239 238 237 234 233 234 230 225 226 235 245 247 251 256 263 270 277 281 283 286 291 294 297 301 306 310 312 313 315 316 316 316 315 314 313 311 309 308 306 305 304
239 235 237 238 236 234 234 231 237 242 241 235 233 243 247 252 256 262 269 276 280 282 285 288 289 291 296 303 308 311 314 315 316 316 316 315 314 313 311 310 309 308 307 306
238 233 235 236 231 227 230 236 242 246 249 247 239 241 245 251 258 263 267 272 276 279 282 284 285 286 290 297 303 308 311 313 315 315 315 314 313 313 311 310 309 307 306 306
241 236 237 238 233 228 227 234 243 247 249 252 247 242 245 250 256 261 265 269 273 276 279 281 280 281 286 292 297 301 306 310 313 314 314 313 313 312 310 309 308 306 305 304
242 237 236 236 235 235 232 237 245 253 257 258 249 246 246 249 255 261 265 270 275 278 280 281 280 281 284 289 293 298 303 308 311 313 313 313 312 310 309 308 307 305 304 303
248 240 231 229 221 226 233 237 246 254 258 257 251 249 248 248 252 258 265 271 277 280 282 283 283 283 285 288 292 297 301 306 310 311 312 312 310 310 309 308 307 306 305 303
249 248 227 224 224 226 231 236 243 248 253 254 255 253 251 252 257 262 268 274 280 282 283 285 284 285 287 289 292 297 301 306 309 311 311 311 311 310 310 309 308 307 305 303
240 244 230 219 224 230 231 234 239 245 248 251 254 256 257 256 258 263 268 273 278 281 283 285 285 286 286 289 292 297 302 306 309 311 312 312 311 311 311 310 309 307 304 302
242 245 243 229 223 228 234 239 243 245 248 249 253 256 257 259 262 264 267 271 275 278 281 285 286 284 286 289 294 299 305 308 310 312 312 312 312 311 311 310 308 305 303 303
242 246 249 246 235 228 231 236 242 248 248 247 249 254 258 260 263 266 268 270 273 276 280 283 285 283 286 291 297 305 308 310 311 312 312 311 311 311 310 309 307 304 304 306
244 248 251 252 247 239 234 236 239 244 247 248 249 255 259 263 265 267 269 271 272 273 275 277 279 282 289 298 304 308 310 311 311 311 311 311 311 311 310 308 305 305 306 308
244 247 250 253 253 250 246 242 241 244 247 251 255 258 262 266 267 267 269 272 274 271 272 273 278 286 296 304 307 309 310 310 310 311 311 311 311 310 308 306 306 307 308 310
243 245 247 250 252 254 253 251 249 248 249 252 255 259 263 266 267 268 273 276 276 275 275 277 286 298 305 308 308 309 309 310 310 311 311 311 311 309 307 306 307 309 310 312
244 245 247 248 250 253 254 255 255 254 253 254 255 258 261 265 269 272 276 279 280 280 281 289 303 310 310 309 308 309 309 310 311 311 310 310 309 307 307 308 309 311 313 315
247 246 248 249 249 250 253 254 254 255 255 255 257 259 261 264 267 272 276 280 281 281 285 297 307 309 308 308 308 308 309 310 310 310 309 308 307 308 309 311 313 315 316 317
251 249 250 251 252 252 252 253 254 254 253 253 254 256 259 262 265 269 273 278 280 282 288 298 304 305 306 306 307 308 309 309 308 309 308 307 308 310 313 315 316 318 319 319
252 251 252 253 254 256 255 254 254 255 255 253 254 256 258 261 265 268 271 274 275 280 290 298 300 302 304 305 307 307 307 308 308 307 307 309 311 314 316 318 319 320 321 321
250 251 252 254 256 258 258 258 256 254 255 255 255 256 258 259 262 264 265 267 274 285 291 295 298 300 303 305 306 306 307 307 307 306 309 312 315 318 319 321 322 323 324 324
255 255 257 258 259 261 261 261 258 256 253 253 254 253 253 253 254 257 262 269 278 286 290 293 296 299 302 304 305 306 306 306 306 309 313 316 319 321 323 325 326 327 327 328
265 265 265 266 265 264 261 260 256 252 249 249 250 249 240 245 253 263 270 274 278 282 287 292 296 299 302 304 305 305 305 306 309 313 317 321 323 326 328 330 331 331 331 331
270 271 272 272 269 264 256 249 244 239 239 242 244 238 234 245 259 265 267 271 277 283 288 293 297 301 303 305 305 305 306 309 313 318 322 325 328 332 334 335 334 334 334 335
273 273 277 274 270 257 237 220 214 218 223 224 220 227 239 244 248 255 264 272 280 286 290 295 299 303 305 305 306 307 310 314 319 323 326 330 334 337 338 338 337 338 338 339
266 271 275 247 215 205 175 182 181 186 193 201 207 211 219 233 247 259 270 278 284 289 293 298 303 305 306 306 308 311 316 321 325 329 333 336 339 340 340 341 342 343 344 345
Height
5850 5853 5856 5859 5859 5861 5862 5862 5865 5867 5866 5864 5864 5864 5864 5864 5864 5864 5864 5864 5864 5862 5860 5859 5857 5855 5852 5849 5847 5844 5841 5838 5835 5832 5829 5825 5821 5817 5813 5809 5805 5801 5797 5793
5843 5847 5851 5850 5850 5853 5855 5856 5858 5861 5861 5860 5859 5859 5859 5860 5860 5860 5861 5861 5860 5859 5858 5855 5853 5851 5848 5845 5842 5839 5835 5832 5829 5825 5822 5817 5813 5808 5804 5800 5796 5792 5788 5784
5836 5842 5841 5842 5843 5845 5847 5850 5852 5854 5855 5855 5856 5856 5855 5855 5855 5855 5856 5856 5856 5855 5853 5851 5849 5847 5844 5841 5837 5833 5830 5826 5822 5818 5814 5809 5805 5801 5797 5792 5788 5783 5777 5772
5828 5833 5833 5834 5836 5838 5840 5844 5845 5846 5848 5850 5851 5850 5850 5848 5848 5849 5850 5851 5851 5849 5848 5847 5845 5842 5839 5836 5832 5828 5823 5819 5815 5810 5806 5802 5797 5793 5788 5783 5777 5771 5765 5759
5822 5826 5826 5827 5830 5831 5833 5837 5838 5839 5840 5842 5844 5844 5843 5840 5841 5843 5844 5844 5844 5843 5842 5841 5839 5837 5834 5830 5826 5821 5816 5811 5806 5802 5797 5793 5788 5783 5777 5771 5765 5759 5752 5745
5816 5818 5818 5821 5823 5825 5827 5830 5831 5832 5832 5833 5838 5838 5835 5833 5835 5836 5837 5837 5837 5836 5836 5834 5833 5830 5827 5823 5819 5814 5808 5804 5799 5794 5790 5784 5779 5773 5767 5760 5753 5746 5739 5732
5809 5811 5812 5815 5816 5818 5820 5822 5823 5824 5824 5825 5831 5829 5828 5828 5828 5829 5830 5830 5830 5829 5829 5827 5825 5822 5819 5816 5812 5807 5802 5797 5792 5787 5782 5776 5770 5764 5757 5750 5743 5735 5728 5720
5801 5804 5807 5808 5810 5813 5814 5815 5816 5817 5817 5819 5821 5820 5821 5821 5821 5821 5822 5822 5822 5822 5821 5819 5816 5813 5811 5808 5804 5799 5794 5790 5785 5779 5774 5768 5761 5754 5747 5739 5732 5724 5716 5708
5793 5797 5801 5802 5803 5805 5806 5807 5810 5811 5810 5811 5811 5812 5812 5813 5814 5814 5814 5814 5815 5814 5812 5810 5808 5806 5803 5800 5796 5791 5787 5782 5777 5771 5765 5758 5751 5744 5735 5727 5719 5711 5702 5694
5784 5787 5793 5796 5796 5796 5798 5801 5803 5802 5803 5803 5803 5803 5805 5807 5807 5808 5807 5807 5806 5806 5804 5803 5801 5798 5795 5791 5787 5783 5778 5774 5768 5762 5755 5748 5740 5732 5723 5714 5706 5697 5689 5682
5774 5776 5781 5786 5788 5790 5792 5794 5794 5795 5795 5796 5795 5798 5799 5799 5800 5800 5799 5799 5799 5798 5797 5795 5792 5790 5786 5782 5777 5773 5769 5764 5758 5751 5743 5736 5727 5719 5710 5702 5694 5685 5678 5672
5767 5769 5772 5777 5781 5783 5785 5785 5786 5786 5786 5787 5788 5792 5791 5792 5792 5791 5791 5791 5791 5790 5788 5787 5784 5780 5776 5772 5768 5764 5759 5754 5747 5740 5732 5724 5715 5707 5698 5690 5682 5675 5669 5663
5761 5762 5764 5768 5776 5777 5777 5777 5778 5778 5779 5779 5779 5783 5783 5783 5783 5783 5783 5783 5782 5781 5780 5778 5774 5770 5766 5763 5759 5754 5749 5743 5736 5728 5720 5712 5704 5695 5687 5679 5672 5666 5660 5655
5754 5755 5757 5759 5764 5767 5769 5770 5770 5770 5769 5770 5771 5773 5774 5773 5774 5773 5773 5773 5773 5771 5770 5767 5764 5760 5757 5753 5749 5744 5739 5732 5725 5717 5709 5701 5693 5685 5677 5670 5664 5658 5652 5646
5744 5745 5746 5747 5751 5755 5759 5762 5762 5762 5761 5761 5762 5764 5766 5765 5764 5764 5764 5763 5762 5760 5758 5755 5752 5749 5746 5743 5739 5734 5728 5721 5713 5706 5698 5690 5682 5674 5667 5661 5655 5650 5644 5637
5730 5731 5733 5736 5739 5741 5745 5750 5752 5753 5753 5753 5754 5755 5758 5757 5756 5756 5755 5755 5754 5751 5747 5744 5741 5739 5736 5733 5729 5724 5717 5710 5702 5695 5687 5680 5672 5665 5659 5654 5648 5641 5634 5627
5717 5718 5719 5722 5726 5727 5730 5738 5741 5742 5743 5744 5745 5748 5749 5749 5749 5748 5747 5747 5745 5742 5738 5734 5731 5729 5727 5723 5718 5712 5706 5699 5692 5685 5678 5671 5664 5658 5652 5646 5640 5632 5624 5616
5705 5706 5706 5708 5712 5711 5720 5724 5726 5729 5732 5734 5735 5737 5738 5740 5740 5740 5739 5739 5736 5733 5730 5726 5723 5721 5718 5713 5708 5702 5696 5690 5683 5677 5670 5663 5657 5651 5645 5638 5631 5623 5614 5604
5692 5694 5694 5696 5696 5698 5706 5708 5711 5713 5716 5721 5723 5724 5726 5728 5729 5729 5729 5729 5727 5724 5721 5718 5715 5712 5708 5704 5699 5693 5688 5681 5675 5669 5662 5657 5651 5645 5638 5630 5622 5613 5603 5593
5680 5682 5684 5684 5684 5686 5694 5696 5697 5700 5702 5707 5709 5712 5715 5717 5718 5719 5719 5718 5717 5715 5713 5711 5708 5705 5700 5696 5691 5685 5680 5674 5668 5662 5656 5651 5645 5638 5630 5622 5613 5603 5593 5583
5670 5671 5672 5673 5672 5675 5680 5683 5686 5690 5693 5696 5698 5701 5704 5706 5708 5708 5708 5708 5707 5707 5705 5704 5701 5697 5693 5688 5683 5678 5673 5667 5661 5656 5651 5646 5639 5631 5623 5614 5604 5594 5585 5575
5661 5662 5663 5662 5663 5667 5669 5670 5674 5678 5682 5685 5688 5690 5693 5695 5696 5698 5699 5699 5699 5699 5699 5697 5693 5690 5686 5681 5677 5671 5666 5661 5657 5652 5646 5640 5632 5624 5615 5605 5596 5586 5576 5566
5654 5654 5653 5654 5656 5656 5657 5659 5662 5667 5673 5677 5680 5682 5684 5686 5688 5691 5692 5693 5693 5693 5692 5690 5687 5683 5679 5675 5670 5665 5661 5657 5653 5647 5641 5634 5626 5616 5607 5598 5588 5579 5569 5560
5648 5646 5646 5645 5645 5646 5647 5649 5654 5659 5665 5670 5673 5676 5678 5680 5683 5686 5687 5688 5688 5687 5686 5683 5680 5677 5673 5668 5664 5660 5657 5653 5649 5643 5636 5628 5619 5610 5601 5592 5582 5573 5564 5555
5642 5641 5639 5638 5638 5639 5641 5645 5650 5655 5660 5664 5668 5670 5673 5676 5679 5681 5682 5683 5682 5681 5680 5678 5675 5671 5667 5663 5660 5658 5654 5650 5644 5638 5630 5622 5613 5605 5596 5587 5578 5569 5560 5551
5638 5638 5636 5636 5637 5639 5641 5645 5650 5654 5658 5661 5664 5667 5671 5674 5676 5677 5678 5678 5677 5677 5675 5672 5668 5665 5662 5660 5658 5656 5652 5647 5640 5633 5625 5617 5608 5600 5592 5583 5575 5565 5556 5547